Погода в Боннивилле

Канада     54°16′02″N   110°43′45″W
темп.,
°C
ветер,
м/с
пор.,
м/с
влажн.,
%
обл.,
%
осадки,
мм/ч
давл.,
гПа
погр.,
м
20 января, ср
ср2023:000зсз10207463 0.1 9961112
02:00−3зсз9197122 0.0 9991022
05:00−3зсз9197721 0.0 1001991
08:00−3зсз9187493 0.0 10021004
11:00−2зсз9187694 0.0 10031233
14:00−3сз9158196 0.3 10061383
17:00−8ссз5128998 0.4 1011707
20:00−11сз51286100 0.0 1016643
21 января, чт
чт2123:00−13сз51088100 0.1 1019300
02:00−15сз479199 0.0 1022143
05:00−17сз339389 0.0 102430
08:00−17зсз339382 0.0 102628
11:00−13зсз259490 0.1 1025240
14:00−10сз3689100 0.1 1025632
17:00−13зсз3493100 0.1 102540
20:00−15зсз339552 0.0 102626
22 января, пт
пт2223:00−17зсз229750 0.0 102620
02:00−16зсз229691 0.0 102620
05:00−15ссз119795 0.1 102520
08:00−15всв0197100 0.3 102520
11:00−14в1195100 0.6 1024121
14:00−14всв229495 0.2 1022192
17:00−16в229697 0.4 102240
20:00−17в2397100 0.1 102330
23 января, сб
сб2323:00−19всв2398100 0.2 102431
02:00−21всв2299100 0.1 102620
05:00−23св2299100 0.1 102820
08:00−25св11100100 0.1 102920
11:00−22з1197100 0.1 103089
14:00−20сз1391100 0.1 1028422
17:00−24сз1296100 0.1 102920
20:00−27зсз129556 0.0 102919
24 января, вс
вс2423:00−28зюз229628 0.0 102919
02:00−29юз229710 0.0 102819
05:00−29юз23965 0.0 102619
08:00−29юз23970 0.0 102619
11:00−24юз239445 0.0 1025161
14:00−22юз249297 0.0 1023257
17:00−26ююз229453 0.0 102319
20:00−28ююз22940 0.0 102419